TimeCST,TemperatureF,Dew PointF,Humidity,Sea Level PressureIn,VisibilityMPH,Wind Direction,Wind SpeedMPH,Gust SpeedMPH,PrecipitationIn,Events,Conditions,WindDirDegrees,DateUTC
12:00 AM,80,75,80,29.87,12,East,9.2,,,,Partly Cloudy,100,2013-04-10 06:00:00
12:00 AM,80.6,75.2,84,28.87,6.2,East,9.2,-,N/A,,Mostly Cloudy,100,2013-04-10 06:00:00
3:00 AM,80,74,79,29.81,12,East,6.9,,,,Mostly Cloudy,100,2013-04-10 09:00:00
5:00 AM,78.8,75.2,89,29.80,6.2,East,8.1,-,N/A,,Mostly Cloudy,100,2013-04-10 11:00:00
6:00 AM,77.0,75.2,94,29.82,6.2,East,6.9,-,N/A,,Mostly Cloudy,100,2013-04-10 12:00:00
6:10 AM,-9999,-9999,N/A,-9999,6.2,ESE,13.8,28.8,N/A,,Scattered Clouds,120,2013-04-10 12:10:00
7:00 AM,80.6,75.2,84,29.83,6.2,ESE,8.1,-,N/A,,Mostly Cloudy,110,2013-04-10 13:00:00
8:00 AM,82.4,75.2,79,29.84,6.2,East,12.7,-,N/A,,Scattered Clouds,100,2013-04-10 14:00:00
9:00 AM,84,75,69,29.86,12,ESE,10.4,,,,Partly Cloudy,110,2013-04-10 15:00:00
9:00 AM,84.2,75.2,74,29.86,6.2,ESE,10.4,-,N/A,,Mostly Cloudy,110,2013-04-10 15:00:00
10:00 AM,86.0,75.2,70,29.85,6.2,ESE,11.5,-,N/A,,Mostly Cloudy,110,2013-04-10 16:00:00
11:00 AM,86.0,75.2,70,29.84,6.2,ESE,9.2,-,N/A,,Mostly Cloudy,120,2013-04-10 17:00:00
12:00 PM,85,75,66,29.82,16,ESE,10.4,,,,Partly Cloudy,110,2013-04-10 18:00:00
12:00 PM,86.0,75.2,70,29.81,6.2,ESE,10.4,-,N/A,,Mostly Cloudy,110,2013-04-10 18:00:00
1:00 PM,86.0,75.2,70,29.79,6.2,ESE,10.4,-,N/A,,Mostly Cloudy,110,2013-04-10 19:00:00
2:00 PM,86.0,77.0,74,29.76,6.2,ESE,8.1,-,N/A,,Scattered Clouds,110,2013-04-10 20:00:00
3:00 PM,85,75,66,29.74,14,ESE,9.2,,,,Partly Cloudy,110,2013-04-10 21:00:00
3:00 PM,86.0,75.2,70,29.73,6.2,ESE,9.2,-,N/A,,Scattered Clouds,110,2013-04-10 21:00:00
4:00 PM,86.0,77.0,74,29.70,6.2,ESE,9.2,-,N/A,,Partly Cloudy,110,2013-04-10 22:00:00
5:00 PM,84.2,77.0,79,29.73,6.2,ESE,6.9,-,N/A,,Partly Cloudy,110,2013-04-10 23:00:00
6:00 PM,82,76,76,29.74,12,ESE,9.2,,,,Scattered Clouds,110,2013-04-11 00:00:00
6:00 PM,82.4,75.2,79,29.74,6.2,ESE,9.2,-,N/A,,Partly Cloudy,110,2013-04-11 00:00:00
9:00 PM,80,76,84,29.78,12,ESE,6.9,,,,Scattered Clouds,110,2013-04-11 03:00:00